Osceola Municipal, IA

3:39 AM CDT on May 24, 2017 (GMT -0500)
Osceola Municipal

Weather History for KI75 - April, 2014

Change the Weather History Date:

Tuesday, April 1, 2014

  Actual Average (KCNC) Record (KCNC)
Temperature  
Mean Temperature 35 °F -  
Max Temperature 49 °F 57 °F 84 °F (2012)
Min Temperature 23 °F 33 °F 22 °F (1954)
Degree Days  
Heating Degree Days 30    
Moisture  
Dew Point 20 °F    
Average Humidity 53    
Maximum Humidity 72    
Minimum Humidity 36    
Precipitation  
Precipitation 0.00 in - - ()
Sea Level Pressure  
Sea Level Pressure 30.00 in    
Wind  
Wind Speed 15 mph (NW)    
Max Wind Speed 26 mph    
Max Gust Speed 37 mph    
Visibility 10 miles    
Events      
Averages and records for this station are not official NWS values.
T = Trace of Precipitation, MM = Missing Value Source: NWS Daily Summary

Daily Weather History Graph

Daily Weather History Graph

Search for Another Location

Airport or City:

Trip Planner

Search our weather history database for the weather conditions in past years. The results will help you decide how hot, cold, wet, or windy it might be!

Date:

Astronomy

Apr. 01, 2014 Rise Set
Actual Time 6:58 AM CDT 7:39 PM CDT
Civil Twilight 6:30 AM CDT 8:07 PM CDT
Nautical Twilight 5:57 AM CDT 8:40 PM CDT
Astronomical Twilight 5:23 AM CDT 9:14 PM CDT
Moon 8:00 AM CDT (4/1) 10:04 PM CDT (4/1)
Length of Visible Light 13h 37m
Length of Day
12h 41m
Waxing Crescent, 5% of the Moon is Illuminated
Apr 1
Waxing Crescent
Apr 7
First Quarter
Apr 15
Full
Apr 22
Last Quarter
Apr 29
New

Hourly Weather History & Observations

Time (CDT) Temp. Windchill Dew Point Humidity Pressure Visibility Wind Dir Wind Speed Gust Speed Precip Events Conditions
12:15 AM 29.3 °F 15.9 °F 15.6 °F 57% 29.85 in 10.0 mi West 21.9 mph 29.9 mph N/A   Mostly Cloudy
12:35 AM 29.1 °F 15.1 °F 15.3 °F 56% 29.86 in 10.0 mi West 24.2 mph 36.8 mph N/A   Overcast
1:15 AM 27.5 °F 12.9 °F 15.6 °F 61% 29.87 in 10.0 mi West 24.2 mph 34.5 mph N/A   Overcast
1:35 AM 27.5 °F 14.2 °F 15.1 °F 60% 29.88 in 10.0 mi West 19.6 mph 31.1 mph N/A   Overcast
1:55 AM 27.5 °F 14.6 °F 15.4 °F 61% 29.88 in 10.0 mi West 18.4 mph 31.1 mph N/A   Overcast
2:15 AM 27.5 °F 12.3 °F 15.4 °F 61% 29.89 in 10.0 mi West 26.5 mph 34.5 mph N/A   Overcast
2:35 AM 27.1 °F 12.7 °F 15.6 °F 62% 29.89 in 10.0 mi West 23.0 mph 33.4 mph N/A   Overcast
2:55 AM 27.0 °F 12.8 °F 15.6 °F 62% 29.89 in 10.0 mi West 21.9 mph 31.1 mph N/A   Overcast
3:15 AM 27.1 °F 12.4 °F 16.0 °F 63% 29.88 in 10.0 mi West 24.2 mph 34.5 mph N/A   Overcast
3:35 AM 27.5 °F 13.2 °F 16.5 °F 63% 29.88 in 10.0 mi West 23.0 mph 32.2 mph N/A   Overcast
3:55 AM 27.1 °F 14.9 °F 16.5 °F 64% 29.89 in 10.0 mi West 16.1 mph 29.9 mph N/A   Overcast
4:15 AM 27.0 °F 12.8 °F 16.5 °F 65% 29.91 in 10.0 mi West 21.9 mph 29.9 mph N/A   Overcast
4:35 AM 26.6 °F 13.4 °F 16.7 °F 66% 29.92 in 10.0 mi West 18.4 mph 27.6 mph N/A   Overcast
4:55 AM 26.6 °F 12.7 °F 16.3 °F 65% 29.93 in 10.0 mi West 20.7 mph 25.3 mph N/A   Overcast
5:15 AM 25.7 °F 12.7 °F 16.0 °F 67% 29.93 in 10.0 mi WNW 17.3 mph 29.9 mph N/A   Mostly Cloudy
5:35 AM 24.8 °F 12.4 °F 15.8 °F 69% 29.93 in 10.0 mi West 15.0 mph 23.0 mph N/A   Scattered Clouds
5:55 AM 24.3 °F 12.7 °F 15.8 °F 70% 29.94 in 10.0 mi West 12.7 mph - N/A   Clear
6:15 AM 23.9 °F 10.3 °F 15.8 °F 71% 29.96 in 10.0 mi West 17.3 mph 26.5 mph N/A   Clear
6:35 AM 23.5 °F 9.4 °F 15.6 °F 72% 29.97 in 10.0 mi West 18.4 mph 24.2 mph N/A   Clear
6:55 AM 23.0 °F 8.7 °F 14.2 °F 69% 29.99 in 10.0 mi West 18.4 mph 24.2 mph N/A   Clear
7:15 AM 23.0 °F 11.1 °F 14.0 °F 68% 30.00 in 10.0 mi West 12.7 mph - N/A   Clear
7:35 AM 23.0 °F 13.1 °F 14.7 °F 71% 30.00 in 10.0 mi West 9.2 mph - N/A   Clear
7:55 AM 24.4 °F 13.0 °F 15.8 °F 70% 30.01 in 10.0 mi West 12.7 mph - N/A   Clear
8:15 AM 25.7 °F 15.1 °F 15.8 °F 66% 30.01 in 10.0 mi WNW 11.5 mph 16.1 mph N/A   Clear
8:35 AM 26.6 °F 14.7 °F 16.2 °F 65% 30.00 in 10.0 mi WNW 15.0 mph 18.4 mph N/A   Clear
8:55 AM 27.5 °F 15.4 °F 15.8 °F 61% 30.01 in 10.0 mi WNW 16.1 mph 23.0 mph N/A   Clear
9:15 AM 29.3 °F 18.2 °F 16.0 °F 58% 30.03 in 10.0 mi WNW 15.0 mph - N/A   Clear
9:35 AM 31.1 °F 21.4 °F 17.1 °F 56% 30.03 in 10.0 mi West 12.7 mph - N/A   Clear
9:55 AM 31.8 °F 21.4 °F 16.9 °F 54% 30.04 in 10.0 mi NW 15.0 mph - N/A   Clear
10:15 AM 32.9 °F 23.7 °F 17.4 °F 53% 30.03 in 10.0 mi WNW 12.7 mph - N/A   Clear
10:35 AM 34.7 °F 25.9 °F 18.1 °F 51% 30.03 in 10.0 mi West 12.7 mph 17.3 mph N/A   Clear
10:55 AM 36.0 °F 27.5 °F 18.5 °F 49% 30.05 in 10.0 mi NW 12.7 mph 19.6 mph N/A   Clear
11:15 AM 37.8 °F 28.3 °F 19.2 °F 47% 30.06 in 10.0 mi WNW 17.3 mph - N/A   Clear
11:35 AM 39.0 °F 32.3 °F 19.4 °F 45% 30.06 in 10.0 mi WNW 10.4 mph 21.9 mph N/A   Clear
11:55 AM 39.9 °F 35.1 °F 19.8 °F 44% 30.05 in 10.0 mi West 6.9 mph - N/A   Clear
12:15 PM 41.0 °F 34.7 °F 20.1 °F 43% 30.03 in 10.0 mi NNW 10.4 mph - N/A   Clear
12:35 PM 42.1 °F 36.1 °F 20.1 °F 42% 30.03 in 10.0 mi NNW 10.4 mph 17.3 mph N/A   Clear
12:55 PM 41.9 °F 37.5 °F 20.5 °F 42% 30.04 in 10.0 mi NW 6.9 mph - N/A   Clear
1:15 PM 43.5 °F 40.1 °F 21.0 °F 41% 30.06 in 10.0 mi West 5.8 mph - N/A   Clear
1:35 PM 43.7 °F 41.1 °F 21.0 °F 41% 30.06 in 10.0 mi SW 4.6 mph - N/A   Clear
1:55 PM 43.7 °F - 21.2 °F 41% 30.05 in 10.0 mi Calm Calm - N/A   Clear
2:15 PM 44.8 °F 41.6 °F 21.4 °F 40% 30.05 in 10.0 mi WSW 5.8 mph - N/A   Clear
2:35 PM 46.8 °F - 21.9 °F 37% 30.04 in 10.0 mi WNW 8.1 mph - N/A   Clear
2:55 PM 47.3 °F - 21.9 °F 37% 30.04 in 10.0 mi WNW 9.2 mph - N/A   Clear
3:15 PM 47.8 °F - 21.9 °F 36% 30.03 in 10.0 mi SW 5.8 mph - N/A   Clear
3:35 PM 47.5 °F - 22.1 °F 37% 30.03 in 10.0 mi WSW 8.1 mph - N/A   Scattered Clouds
3:55 PM 47.8 °F - 21.7 °F 36% 30.03 in 10.0 mi WNW 4.6 mph - N/A   Scattered Clouds
4:15 PM 47.3 °F - 21.9 °F 37% 30.03 in 10.0 mi NNW 6.9 mph - N/A   Mostly Cloudy
4:35 PM 47.1 °F - 21.9 °F 37% 30.02 in 10.0 mi NNW 8.1 mph - N/A   Scattered Clouds
4:55 PM 47.8 °F - 21.9 °F 36% 30.02 in 10.0 mi WNW 9.2 mph - N/A   Clear
5:15 PM 47.7 °F - 21.9 °F 36% 30.02 in 10.0 mi NNW 6.9 mph - N/A   Scattered Clouds
5:35 PM 47.3 °F - 21.9 °F 37% 30.03 in 10.0 mi North 5.8 mph - N/A   Scattered Clouds
5:55 PM 46.8 °F - 21.9 °F 37% 30.03 in 10.0 mi NW 4.6 mph - N/A   Mostly Cloudy
6:15 PM 46.4 °F 45.2 °F 22.3 °F 39% 30.03 in 10.0 mi NNW 3.5 mph - N/A   Overcast
6:35 PM 46.0 °F - 21.9 °F 39% 30.04 in 10.0 mi Calm Calm - N/A   Overcast
6:55 PM 45.9 °F 43.6 °F 23.7 °F 42% 30.04 in 10.0 mi NNE 4.6 mph - N/A   Overcast
7:15 PM 45.1 °F 42.8 °F 24.6 °F 45% 30.04 in 10.0 mi NNE 4.6 mph - N/A   Overcast
7:35 PM 44.1 °F 41.5 °F 25.5 °F 48% 30.04 in 10.0 mi NNE 4.6 mph - N/A   Overcast
7:55 PM 43.7 °F 41.1 °F 24.3 °F 46% 30.05 in 10.0 mi NNE 4.6 mph - N/A   Overcast
8:15 PM 43.0 °F 40.3 °F 24.6 °F 48% 30.06 in 10.0 mi NNE 4.6 mph - N/A   Overcast
8:35 PM 42.1 °F 38.4 °F 24.8 °F 50% 30.07 in 10.0 mi NNE 5.8 mph - N/A   Overcast
8:55 PM 41.5 °F 37.8 °F 24.6 °F 51% 30.07 in 10.0 mi NNE 5.8 mph - N/A   Overcast
9:15 PM 41.0 °F 37.1 °F 24.8 °F 53% 30.08 in 10.0 mi NNE 5.8 mph - N/A   Overcast
9:35 PM 40.6 °F 35.4 °F 24.4 °F 53% 30.08 in 10.0 mi NNE 8.1 mph - N/A   Overcast
9:55 PM 39.9 °F 34.5 °F 23.9 °F 53% 30.07 in 10.0 mi NNE 8.1 mph - N/A   Overcast
10:15 PM 38.7 °F 34.3 °F 24.3 °F 56% 30.07 in 10.0 mi NNE 5.8 mph - N/A   Overcast
10:35 PM 37.6 °F 31.6 °F 24.3 °F 59% 30.07 in 10.0 mi North 8.1 mph - N/A   Overcast
10:55 PM 37.4 °F 33.8 °F 24.4 °F 60% 30.07 in 10.0 mi NE 4.6 mph - N/A   Overcast
11:15 PM 37.9 °F 33.5 °F 24.3 °F 58% 30.07 in 10.0 mi NNE 5.8 mph - N/A   Overcast
11:35 PM 37.9 °F 34.4 °F 24.8 °F 59% 30.07 in 10.0 mi NNE 4.6 mph - N/A   Overcast
11:55 PM 38.3 °F 34.8 °F 24.8 °F 58% 30.07 in 10.0 mi NNE 4.6 mph - N/A   Overcast